Wind_Speed
85 82 79 76 73 68 64 62 61 63 63 62 60 59 58 55 53 51 50 48 46 45 42 41 41 38 35 34 33 32 32 32 31 30 31 33 35 35 37 39 40 41 41 42 42 45 47 49 50 51 52 54 56 58
94 89 86 85 83 80 75 71 68 65 67 67 69 67 65 64 63 60 58 57 54 52 51 51 50 47 45 46 45 44 42 40 40 39 38 39 41 42 43 45 45 46 49 49 51 53 53 52 54 57 58 59 61 64
98 98 96 94 93 89 89 85 81 76 72 71 70 70 70 69 68 69 68 66 63 63 61 59 58 57 58 57 55 54 52 50 49 47 46 46 46 47 49 49 51 56 54 54 55 59 58 60 65 66 67 68 69 69
99 98 96 93 95 94 94 91 90 86 86 86 81 74 74 74 71 70 71 72 72 70 69 67 64 64 66 65 65 65 64 60 58 56 56 56 56 55 57 58 61 69 65 63 61 66 65 70 70 70 71 71 72 75
106 104 103 103 101 98 95 100 96 95 91 87 86 86 80 75 73 74 75 76 76 76 74 73 73 73 73 72 71 71 70 70 68 67 67 66 66 68 67 66 72 79 77 75 71 71 70 73 76 77 78 80 82 83
116 114 113 116 110 107 105 105 105 101 97 94 95 96 91 90 87 82 80 82 84 82 80 79 76 75 78 79 78 78 80 79 77 76 74 74 78 78 74 74 84 87 87 86 84 82 81 82 81 81 83 85 87 89
120 118 116 116 115 116 113 110 108 106 105 102 101 101 98 96 95 96 95 95 94 93 89 86 83 82 85 85 85 86 85 85 84 83 82 83 85 85 81 79 91 92 93 94 93 89 87 88 87 87 87 90 93 94
129 128 124 120 116 114 116 117 118 117 116 113 111 106 109 105 105 104 106 107 101 100 98 93 90 91 93 94 94 94 95 93 91 91 91 93 93 93 90 96 98 100 98 96 95 94 93 92 89 89 88 88 91 95
138 136 135 135 134 133 130 127 126 126 123 121 121 116 114 113 106 103 107 102 99 100 100 99 98 100 98 100 100 100 101 102 103 102 101 100 98 99 103 102 100 96 93 92 92 94 92 90 89 89 88 90 92 94
126 132 130 131 132 131 130 134 132 128 124 122 126 120 116 109 103 103 102 100 95 92 89 87 98 102 104 104 103 102 105 107 105 102 105 101 97 99 101 97 91 90 88 86 87 88 90 91 92 91 92 95 98 99
110 111 118 117 116 114 109 111 112 118 117 119 110 109 107 103 102 102 99 93 85 82 82 87 94 95 95 97 99 100 100 98 94 92 92 87 85 90 89 86 85 85 83 83 84 85 87 89 91 93 94 96 98 99
99 100 99 102 100 100 102 106 105 104 102 101 98 98 99 98 99 96 87 82 79 82 82 87 90 90 89 90 89 89 89 87 84 83 82 81 85 85 84 84 84 84 85 85 86 86 87 88 90 91 93 95 97 99
94 94 92 88 89 92 91 91 92 91 86 93 94 93 92 95 94 81 77 75 80 81 83 85 84 85 87 86 84 83 82 82 82 80 80 82 82 82 81 82 83 83 84 85 86 87 88 89 91 92 93 96 96 98
92 90 89 87 85 87 87 87 81 83 86 86 88 88 89 86 71 69 72 74 76 76 78 78 79 80 81 82 81 82 81 80 77 76 78 79 79 79 79 80 80 82 83 84 84 86 88 90 91 92 93 95 96 96
88 91 88 87 85 85 83 81 83 85 85 86 84 82 75 70 71 71 70 71 72 75 75 76 75 75 78 78 78 78 77 74 75 76 76 75 75 76 77 78 80 80 81 82 83 85 87 89 91 92 95 96 98 98
83 84 82 84 85 82 81 80 81 81 83 84 81 76 68 73 73 70 69 70 70 70 69 70 71 71 71 71 72 75 73 73 72 72 72 72 73 75 77 79 82 82 82 82 84 86 88 91 93 92 94 98 98 98
78 81 84 83 83 80 80 83 84 84 83 84 79 71 71 72 72 72 69 66 65 66 66 67 67 69 67 68 70 72 73 73 72 71 72 73 76 79 80 82 83 83 83 85 87 90 91 92 91 92 93 96 97 97
75 78 79 78 80 83 85 85 85 86 85 80 74 74 74 73 72 69 66 66 66 64 65 66 66 66 69 70 72 72 72 73 73 74 76 79 80 81 82 83 83 84 86 89 90 90 91 91 93 96 98 96 94 95
70 73 77 79 81 84 85 86 84 81 79 77 75 75 73 73 71 66 69 68 66 64 64 66 67 69 72 71 71 71 73 76 78 79 79 80 82 82 82 83 85 86 87 89 90 90 91 92 94 98 96 94 93 93
65 69 72 76 80 81 83 84 82 80 78 77 79 78 74 72 69 66 68 68 66 65 64 67 71 69 70 73 74 76 77 79 79 78 78 81 83 82 84 85 86 88 88 89 90 91 90 90 93 95 94 92 89 84
65 68 72 76 79 80 81 82 82 83 82 81 79 77 75 73 69 70 69 68 69 69 69 71 72 71 74 75 77 79 81 82 80 79 80 82 84 84 88 90 89 89 89 90 89 89 92 93 92 91 88 86 83 81
65 66 70 73 75 77 81 82 83 85 83 82 80 79 77 75 72 72 72 73 71 73 72 72 73 77 77 77 80 81 82 81 81 81 82 83 84 88 88 89 89 89 90 90 90 87 87 89 89 84 79 77 78 75
60 62 64 66 70 73 74 76 78 80 81 82 81 79 78 77 75 75 77 76 77 77 76 78 81 80 80 80 82 82 82 81 81 82 84 85 84 83 82 85 88 85 85 85 85 82 83 82 78 74 73 71 70 69
55 57 58 57 58 62 65 68 68 69 70 72 75 76 77 77 78 80 80 81 79 80 81 80 79 79 79 81 81 80 81 81 80 79 82 80 80 81 81 79 81 82 81 77 78 76 74 72 70 69 68 65 64 62
53 54 53 54 55 57 58 59 60 61 63 65 69 71 74 74 75 75 76 76 75 76 76 74 74 74 74 76 77 80 81 76 74 73 82 77 75 75 76 76 79 82 76 69 69 68 69 65 65 64 63 58 56 54
56 56 56 56 56 55 55 55 56 58 59 62 63 66 68 70 72 72 71 68 66 66 66 65 67 68 73 73 73 75 75 72 71 73 79 74 72 68 67 70 72 73 64 61 60 60 61 60 58 55 52 48 46 46
51 51 51 51 51 52 53 55 56 57 56 56 55 56 59 61 61 59 58 58 58 59 63 66 65 67 67 67 69 69 70 67 67 69 71 68 63 59 58 62 61 60 58 55 53 52 52 50 47 44 43 42 42 42
42 45 48 50 51 52 52 51 50 51 53 56 57 55 54 54 55 54 54 58 62 63 64 65 63 61 61 60 61 63 63 59 58 58 58 58 54 51 53 53 52 51 48 45 45 44 40 38 38 38 37 37 35 32
38 40 41 44 47 49 51 52 51 50 51 52 53 54 56 55 56 57 57 56 57 57 55 55 56 55 54 54 53 54 53 52 52 51 49 48 48 45 45 43 42 41 39 38 36 36 34 34 34 31 31 30 27 25
36 39 40 38 37 40 43 44 44 45 46 47 49 50 50 50 50 50 50 46 46 46 47 48 49 49 47 45 46 46 45 44 44 45 45 44 40 36 34 34 34 34 35 35 33 30 31 30 28 26 25 23 21 20
22 25 31 36 35 33 34 35 38 40 41 42 42 41 41 39 39 39 38 38 39 40 41 41 39 41 40 40 41 42 38 32 33 36 38 37 33 32 30 28 29 30 32 32 27 24 25 25 21 20 17 18 16 15
27 27 26 25 25 27 30 32 33 32 33 36 36 33 30 28 30 32 34 35 34 33 32 31 31 33 34 34 34 33 31 25 24 27 29 29 28 25 24 25 26 26 25 23 24 22 18 16 15 13 13 11 10 11
20 21 22 23 23 23 23 23 24 25 26 27 26 25 24 24 23 24 26 27 27 27 28 28 28 27 25 24 22 20 18 18 20 22 21 21 22 22 22 20 17 18 19 17 14 12 11 9 7 6 7 7 8 6
Wind_Direction
244 245 245 247 248 248 251 254 257 259 262 264 265 267 268 268 269 266 267 269 272 272 268 270 274 275 276 276 274 278 280 283 285 289 292 292 290 292 293 290 288 287 285 286 288 285 283 285 286 282 280 280 280 281
244 245 249 251 252 253 254 255 257 259 260 263 264 266 265 267 267 267 267 268 269 270 271 272 273 271 273 275 275 274 277 275 276 278 278 281 282 281 284 286 289 290 287 288 291 291 285 281 282 283 283 283 281 280
242 243 245 250 252 255 257 257 258 258 261 262 262 264 266 266 266 266 267 267 266 268 269 269 268 271 273 273 273 272 272 273 273 276 278 280 280 282 283 285 286 284 282 284 287 287 287 288 282 283 285 284 281 279
249 245 248 248 251 253 256 259 261 263 263 262 263 261 262 260 262 266 267 266 267 268 268 269 270 270 271 272 273 275 274 273 271 272 275 278 279 280 283 287 287 285 288 287 285 284 287 286 287 287 285 283 281 281
248 251 255 258 258 257 258 257 258 262 266 267 267 267 266 263 263 264 262 266 266 265 266 268 271 270 270 273 273 272 270 271 271 272 275 277 280 281 282 284 283 283 284 286 285 284 285 285 285 285 283 282 282 282
250 254 253 253 257 260 261 262 264 264 266 267 268 270 270 273 273 274 272 268 270 265 265 264 267 271 272 271 271 272 272 273 272 273 276 277 276 278 280 283 283 283 286 287 285 285 286 286 287 284 280 278 277 278
250 251 253 256 260 264 264 265 265 266 267 267 269 269 270 273 272 274 275 274 273 269 265 263 265 268 269 270 270 270 271 272 274 276 277 277 277 279 280 280 277 281 283 284 284 284 283 282 283 283 281 280 279 279
249 251 251 254 256 259 263 265 267 268 269 269 268 269 271 271 271 272 272 273 269 268 267 265 265 265 267 269 269 269 271 272 272 274 275 275 277 279 280 276 278 280 281 281 281 282 282 281 282 283 281 279 279 279
252 251 251 253 255 257 257 259 262 265 267 268 268 269 271 270 270 269 270 268 267 263 264 263 264 263 264 265 266 269 271 273 274 276 277 276 278 278 279 280 282 278 277 277 276 278 281 280 281 282 281 279 279 280
253 249 250 254 255 255 257 255 258 260 262 264 266 267 271 269 269 267 266 267 265 266 267 267 264 266 265 266 268 270 271 273 275 277 277 278 277 277 278 279 279 279 277 275 276 278 279 279 280 280 279 279 280 282
245 247 245 248 251 253 253 254 256 257 258 261 264 266 267 266 263 262 264 266 267 268 266 268 267 265 266 267 268 270 272 274 276 276 277 278 276 276 277 278 278 278 277 277 277 278 278 279 280 282 283 283 283 285
243 245 245 247 248 250 252 254 254 256 257 258 259 260 261 260 260 262 264 267 267 265 264 263 265 267 268 268 269 271 272 274 275 275 275 275 274 274 276 277 276 276 277 277 276 278 279 280 281 282 283 284 284 285
240 241 243 244 246 249 251 251 251 252 255 257 257 256 258 258 260 266 267 264 261 260 261 263 264 265 267 270 272 271 272 273 275 275 274 273 274 276 276 276 276 276 277 278 279 280 281 282 282 283 284 285 287 288
236 238 241 242 244 247 248 249 251 252 252 252 253 254 255 258 264 264 261 260 260 261 261 262 263 265 267 268 270 271 273 273 273 273 273 275 276 276 276 276 277 278 279 279 280 280 281 283 285 286 287 287 288 290
234 234 236 239 241 244 246 247 247 247 248 249 250 254 258 262 260 259 258 259 259 260 261 263 264 266 267 268 270 271 271 272 273 273 275 277 277 276 276 277 277 277 277 278 280 282 283 284 284 285 287 289 290 291
232 233 234 237 238 240 242 243 246 247 249 250 251 254 255 257 259 258 256 257 258 260 261 262 264 265 266 269 270 272 273 272 273 275 276 276 277 276 276 277 277 279 281 282 283 283 283 284 285 287 288 289 290 291
230 231 232 232 234 237 240 241 243 245 246 248 250 252 251 253 255 256 256 257 259 259 260 262 262 264 267 269 270 272 272 274 276 277 278 278 277 277 278 278 280 282 284 285 285 285 285 287 289 289 288 288 290 291
227 228 230 231 231 232 234 237 239 241 244 248 250 251 252 253 255 256 258 258 258 260 261 263 265 267 267 268 268 270 273 276 276 276 276 276 277 278 280 283 284 285 284 284 285 287 288 289 288 288 288 290 292 292
225 226 226 227 229 231 233 237 240 243 246 250 251 251 252 253 256 257 256 258 259 260 263 265 266 267 268 270 273 273 273 274 275 276 278 279 281 283 284 283 283 284 285 286 286 286 286 287 287 289 291 292 291 292
224 227 227 229 230 232 235 238 241 244 245 247 249 251 253 254 255 256 257 259 262 262 263 264 265 268 271 272 273 274 275 276 278 278 280 281 282 283 283 284 284 283 284 284 285 287 288 289 289 288 290 293 296 298
224 225 227 227 230 234 236 239 242 245 247 248 251 252 254 255 256 258 260 262 263 264 265 266 268 269 270 271 273 274 275 276 279 281 280 281 283 284 284 284 285 286 285 286 287 288 289 289 290 293 295 297 299 297
226 226 227 231 233 233 235 239 241 244 246 249 252 254 257 259 261 263 265 265 265 266 267 269 270 269 270 272 273 274 276 278 279 280 281 282 282 282 283 284 285 285 286 287 288 290 291 291 292 296 298 296 293 294
229 230 232 231 233 237 240 241 242 246 248 251 254 257 259 261 263 265 266 267 266 266 267 266 267 270 271 273 275 276 277 279 280 280 279 278 278 280 282 283 283 284 285 288 289 291 292 294 297 296 293 294 294 295
229 231 234 237 238 241 244 246 248 249 251 253 254 256 258 259 260 260 262 263 264 266 266 266 269 273 277 278 279 280 279 276 275 278 280 282 282 283 284 286 287 287 287 289 291 293 294 294 293 294 293 294 298 299
230 231 234 238 240 241 241 243 247 249 250 251 252 254 256 257 259 260 262 263 264 266 269 273 277 278 278 278 275 274 276 279 282 283 281 283 284 285 285 287 287 288 290 294 294 293 291 293 292 292 296 300 300 301
229 231 231 234 237 240 243 245 246 247 248 249 251 253 254 256 258 258 262 266 269 272 273 274 272 271 269 271 276 278 281 282 281 282 282 283 284 286 287 286 286 289 292 291 291 291 291 291 293 296 298 299 298 295
229 233 238 241 242 242 243 244 246 249 252 256 259 261 260 260 263 266 269 271 273 273 270 269 270 272 275 278 279 278 279 281 282 281 283 285 286 286 287 286 287 287 289 290 290 289 290 293 296 297 296 295 297 298
229 232 235 239 242 246 249 253 255 255 255 254 255 260 266 269 270 270 271 270 268 271 273 273 275 279 279 278 278 280 280 281 282 282 282 283 286 287 284 283 285 287 288 289 288 290 291 291 290 291 296 300 301 298
229 231 234 237 239 240 242 246 251 256 259 261 261 260 262 264 266 266 267 269 269 272 277 279 277 276 277 278 279 280 281 281 282 282 282 281 280 279 281 285 286 288 287 285 285 286 286 288 293 300 302 303 302 300
225 227 231 237 243 245 245 247 250 253 257 258 259 259 260 261 265 267 269 272 273 272 272 273 276 276 277 279 278 277 278 280 282 282 281 281 285 288 286 284 283 280 279 280 280 286 293 298 303 302 301 305 303 301
233 231 231 233 238 243 245 247 247 248 251 255 257 259 260 262 266 268 270 269 270 270 270 272 276 279 279 277 277 277 279 279 278 278 280 283 284 281 281 280 276 275 277 283 294 297 296 299 298 296 300 299 299 302
220 226 230 232 233 233 235 239 243 246 249 252 256 260 264 263 261 263 268 270 270 271 272 271 268 266 269 271 275 278 281 280 265 263 268 273 276 280 280 280 283 287 294 299 298 296 293 290 287 291 295 297 293 281
225 227 228 230 232 235 240 244 248 250 253 256 259 259 256 255 255 253 258 265 270 270 270 272 275 277 279 280 279 279 281 278 273 272 278 285 285 284 286 291 292 292 292 291 286 283 279 280 294 288 273 263 253 228
Height
10548 10555 10562 10567 10573 10579 10584 10590 10596 10600 10604 10607 10611 10614 10616 10619 10622 10625 10627 10628 10628 10629 10629 10629 10630 10630 10629 10629 10629 10628 10626 10626 10625 10625 10625 10624 10622 10621 10620 10619 10618 10617 10616 10613 10612 10611 10608 10604 10603 10600 10597 10594 10591 10586
10527 10536 10542 10549 10555 10560 10567 10574 10578 10585 10590 10593 10596 10598 10602 10604 10607 10610 10612 10614 10616 10617 10618 10619 10619 10619 10619 10618 10617 10617 10617 10616 10615 10615 10614 10614 10612 10611 10610 10607 10605 10604 10603 10604 10600 10597 10597 10595 10589 10585 10582 10579 10575 10571
10507 10516 10522 10528 10534 10540 10547 10554 10560 10565 10571 10576 10581 10583 10585 10588 10591 10594 10596 10598 10600 10602 10603 10605 10605 10605 10605 10604 10604 10604 10603 10603 10602 10603 10602 10601 10599 10599 10597 10594 10590 10585 10586 10587 10586 10579 10579 10579 10574 10570 10565 10560 10557 10553
10481 10494 10501 10509 10514 10520 10525 10532 10537 10544 10550 10555 10560 10563 10565 10569 10573 10576 10579 10580 10582 10583 10586 10588 10588 10589 10588 10588 10588 10587 10587 10587 10588 10588 10588 10586 10584 10585 10583 10581 10574 10560 10566 10567 10568 10560 10561 10554 10553 10551 10546 10542 10538 10534
10453 10463 10473 10481 10491 10500 10505 10508 10516 10522 10525 10530 10535 10540 10543 10548 10552 10555 10559 10561 10562 10563 10568 10569 10570 10570 10570 10569 10569 10568 10568 10569 10570 10571 10572 10570 10567 10566 10569 10567 10552 10540 10545 10549 10550 10542 10540 10533 10529 10525 10522 10518 10514 10509
10426 10437 10452 10461 10469 10474 10481 10482 10490 10495 10501 10505 10510 10512 10517 10521 10524 10530 10535 10539 10538 10540 10545 10550 10551 10549 10547 10546 10545 10545 10546 10548 10550 10552 10553 10552 10546 10545 10552 10552 10527 10516 10524 10526 10525 10522 10518 10513 10508 10504 10499 10495 10490 10484
10404 10415 10423 10432 10438 10443 10451 10459 10463 10468 10474 10479 10482 10485 10490 10493 10499 10503 10509 10511 10511 10513 10518 10525 10530 10529 10523 10520 10520 10520 10522 10524 10527 10529 10529 10526 10521 10522 10530 10528 10500 10501 10501 10496 10495 10496 10494 10488 10484 10478 10473 10468 10463 10457
10380 10392 10401 10411 10417 10423 10427 10432 10435 10440 10445 10449 10453 10458 10461 10468 10475 10479 10478 10480 10483 10484 10490 10499 10506 10504 10497 10494 10494 10494 10496 10499 10502 10504 10504 10499 10498 10496 10500 10483 10484 10480 10476 10470 10467 10465 10464 10461 10455 10450 10445 10439 10434 10429
10350 10363 10374 10382 10390 10399 10406 10412 10412 10415 10416 10417 10421 10425 10433 10446 10453 10446 10443 10451 10458 10462 10464 10475 10476 10469 10469 10469 10469 10470 10469 10469 10474 10476 10474 10473 10476 10469 10456 10457 10455 10449 10446 10445 10441 10438 10435 10431 10426 10421 10415 10409 10404 10400
10322 10332 10341 10350 10357 10366 10374 10380 10386 10387 10384 10390 10387 10401 10411 10420 10416 10413 10415 10422 10432 10438 10449 10448 10437 10436 10438 10440 10443 10445 10446 10445 10447 10450 10443 10447 10447 10429 10425 10427 10425 10422 10420 10418 10415 10411 10406 10402 10398 10392 10387 10382 10376 10372
10289 10297 10309 10318 10327 10335 10341 10347 10351 10353 10354 10360 10376 10379 10381 10382 10378 10381 10389 10403 10414 10421 10420 10416 10403 10403 10409 10415 10415 10416 10419 10417 10423 10421 10415 10422 10411 10399 10398 10399 10399 10396 10394 10392 10388 10384 10379 10375 10370 10366 10361 10356 10351 10345
10255 10267 10277 10287 10297 10305 10311 10316 10320 10324 10338 10344 10346 10344 10343 10347 10349 10356 10379 10393 10395 10390 10389 10379 10376 10381 10388 10386 10389 10391 10393 10394 10397 10397 10392 10388 10375 10377 10379 10377 10374 10371 10368 10364 10359 10356 10354 10350 10345 10340 10334 10328 10323 10318
10226 10237 10249 10260 10269 10274 10280 10285 10293 10305 10317 10309 10307 10312 10313 10318 10330 10355 10365 10365 10355 10355 10357 10359 10361 10361 10360 10361 10364 10364 10366 10370 10369 10371 10365 10356 10355 10358 10355 10351 10348 10345 10341 10337 10334 10332 10329 10324 10318 10312 10307 10300 10297 10290
10197 10210 10221 10232 10242 10248 10255 10261 10277 10281 10278 10279 10282 10286 10291 10306 10330 10335 10330 10330 10330 10332 10333 10336 10338 10340 10339 10340 10341 10340 10342 10342 10345 10341 10335 10334 10336 10334 10330 10327 10323 10319 10316 10313 10310 10306 10301 10297 10292 10286 10280 10273 10268 10262
10169 10183 10194 10206 10216 10224 10231 10244 10247 10248 10252 10254 10259 10267 10285 10297 10300 10305 10308 10308 10308 10310 10312 10314 10317 10319 10317 10317 10317 10316 10316 10319 10316 10315 10314 10315 10313 10310 10306 10301 10296 10294 10291 10288 10285 10283 10278 10272 10266 10261 10252 10245 10238 10235
10144 10158 10173 10184 10194 10205 10213 10221 10222 10228 10230 10229 10238 10254 10272 10272 10276 10280 10283 10284 10286 10289 10292 10294 10295 10297 10296 10297 10296 10291 10293 10293 10294 10294 10293 10292 10290 10285 10280 10275 10270 10268 10268 10266 10262 10257 10251 10243 10239 10239 10231 10217 10212 10206
10126 10136 10145 10159 10172 10185 10194 10192 10193 10199 10203 10205 10222 10239 10249 10254 10256 10258 10261 10265 10268 10270 10272 10273 10275 10273 10278 10276 10274 10270 10269 10270 10272 10272 10271 10268 10263 10259 10256 10250 10247 10247 10245 10241 10235 10227 10222 10217 10214 10208 10203 10193 10186 10181
10103 10113 10127 10142 10154 10157 10159 10163 10167 10169 10178 10194 10209 10218 10225 10231 10234 10238 10243 10247 10249 10251 10252 10254 10255 10257 10254 10253 10250 10250 10251 10251 10249 10248 10245 10241 10238 10235 10233 10231 10227 10223 10217 10210 10205 10202 10197 10192 10185 10173 10166 10166 10163 10152
10086 10096 10106 10115 10124 10132 10137 10140 10148 10159 10172 10180 10189 10197 10204 10209 10214 10221 10223 10226 10229 10233 10235 10235 10236 10234 10228 10230 10230 10229 10229 10227 10225 10224 10222 10218 10215 10214 10211 10205 10200 10195 10190 10185 10180 10175 10171 10165 10156 10144 10140 10135 10129 10124
10071 10078 10088 10095 10101 10111 10118 10125 10134 10144 10153 10163 10168 10174 10181 10188 10196 10201 10203 10207 10211 10214 10215 10214 10211 10213 10211 10207 10206 10205 10204 10202 10202 10202 10201 10196 10190 10189 10183 10179 10174 10167 10164 10157 10152 10147 10144 10139 10125 10115 10111 10106 10103 10102
10055 10061 10068 10076 10082 10091 10102 10111 10119 10122 10131 10139 10147 10154 10162 10168 10174 10178 10184 10188 10190 10191 10191 10193 10192 10191 10188 10186 10183 10180 10178 10177 10180 10184 10179 10173 10166 10162 10155 10148 10146 10141 10135 10128 10127 10123 10111 10104 10098 10092 10088 10082 10074 10069
10037 10047 10054 10060 10067 10077 10084 10092 10100 10105 10113 10119 10125 10132 10138 10145 10154 10159 10162 10163 10167 10167 10170 10171 10169 10163 10163 10163 10158 10157 10158 10158 10157 10156 10151 10148 10144 10135 10130 10124 10118 10113 10105 10100 10095 10096 10090 10076 10070 10069 10064 10057 10046 10040
10028 10034 10042 10050 10057 10062 10069 10079 10085 10090 10096 10103 10109 10116 10121 10129 10134 10138 10137 10141 10141 10142 10147 10144 10139 10141 10141 10140 10137 10135 10132 10132 10132 10129 10122 10116 10113 10111 10109 10100 10089 10088 10084 10078 10072 10070 10062 10053 10048 10044 10037 10031 10025 10020
10018 10025 10032 10040 10048 10052 10057 10061 10069 10077 10084 10091 10096 10102 10106 10109 10111 10110 10113 10114 10120 10119 10116 10118 10118 10119 10120 10117 10113 10110 10103 10100 10100 10101 10093 10092 10091 10085 10079 10075 10066 10058 10056 10059 10052 10045 10039 10034 10026 10020 10014 10011 10007 10002
10006 10012 10020 10026 10033 10038 10045 10051 10057 10063 10069 10074 10076 10077 10079 10082 10084 10088 10090 10089 10093 10091 10094 10100 10102 10100 10095 10090 10085 10079 10074 10079 10080 10079 10060 10064 10065 10061 10056 10051 10042 10031 10033 10037 10029 10025 10015 10012 10007 10001 9998 9996 9991 9985
9988 9996 10005 10011 10017 10025 10031 10038 10042 10045 10048 10051 10055 10058 10060 10062 10063 10064 10063 10071 10077 10079 10080 10080 10076 10073 10067 10064 10066 10059 10056 10057 10055 10051 10038 10041 10039 10040 10038 10028 10019 10011 10016 10014 10011 10004 9997 9992 9989 9988 9984 9981 9978 9973
9982 9989 9996 10004 10009 10014 10017 10019 10022 10026 10031 10034 10038 10040 10039 10039 10042 10050 10055 10056 10057 10055 10050 10047 10049 10047 10048 10047 10043 10039 10036 10035 10032 10026 10020 10017 10017 10018 10017 10006 10003 9999 9997 9994 9991 9987 9983 9980 9978 9975 9971 9968 9964 9960
9979 9983 9986 9991 9996 10000 10003 10007 10011 10014 10015 10015 10015 10020 10026 10028 10029 10034 10035 10032 10029 10030 10029 10026 10026 10030 10029 10025 10022 10016 10012 10013 10011 10007 10003 9998 10000 9999 9994 9990 9988 9984 9981 9979 9976 9974 9972 9969 9965 9963 9961 9958 9954 9951
9968 9973 9977 9981 9983 9986 9989 9991 9996 10001 10003 10005 10006 10006 10006 10009 10012 10012 10012 10013 10012 10011 10013 10011 10007 10008 10007 10004 10002 9998 9996 9994 9991 9988 9987 9984 9981 9982 9980 9977 9974 9972 9969 9967 9964 9961 9959 9958 9956 9954 9952 9949 9946 9943
9955 9958 9962 9968 9975 9978 9979 9982 9985 9987 9989 9990 9990 9991 9992 9993 9995 9996 9996 9999 9999 9998 9996 9993 9991 9989 9989 9989 9985 9982 9981 9979 9977 9973 9969 9966 9968 9968 9966 9964 9962 9959 9956 9954 9953 9953 9950 9948 9947 9946 9944 9941 9939 9937
9953 9955 9956 9957 9961 9967 9970 9972 9972 9972 9974 9974 9976 9978 9980 9983 9984 9983 9983 9984 9983 9981 9980 9978 9979 9976 9974 9972 9970 9966 9966 9970 9967 9962 9958 9957 9956 9955 9955 9953 9950 9948 9946 9945 9946 9945 9943 9941 9940 9939 9937 9936 9934 9933
9940 9944 9948 9951 9954 9956 9957 9958 9960 9963 9964 9963 9964 9968 9972 9974 9973 9971 9969 9968 9968 9969 9969 9968 9967 9965 9963 9961 9960 9958 9957 9957 9956 9952 9950 9948 9947 9947 9945 9944 9942 9941 9940 9939 9938 9937 9935 9935 9934 9933 9933 9932 9932 9931
9935 9937 9939 9942 9945 9947 9950 9952 9953 9954 9955 9955 9957 9959 9960 9961 9962 9962 9961 9960 9960 9958 9957 9956 9955 9955 9953 9952 9950 9949 9948 9946 9944 9943 9942 9942 9940 9938 9937 9936 9936 9935 9934 9933 9932 9931 9930 9931 9931 9931 9931 9930 9930 9930